Vorticity
1 1 1 1 1 1 2 2 1 2 2 2 2 2 2 2 2 2 1 2 4 4 4 3 5 7 7 5 5 9 12 11 7 5 4 4 3 2 2 8 7 -1 6 5 3 3 1 6 7
2 2 3 2 3 1 2 3 2 2 2 2 2 2 3 2 3 3 3 2 1 2 3 2 2 2 5 5 7 5 7 12 14 9 5 4 4 3 2 1 5 7 2 3 7 4 4 3 3
5 5 3 3 2 4 1 2 2 2 2 2 2 2 2 2 2 2 2 3 3 3 2 2 2 3 3 3 3 5 4 3 6 12 13 7 5 4 3 3 4 3 7 2 0 7 6 4 5
6 7 8 5 5 4 5 4 3 4 3 2 3 3 3 2 3 2 3 3 4 4 3 3 1 2 2 3 2 3 5 4 5 6 11 12 10 6 5 4 3 3 3 5 4 2 -0 7 6
3 4 6 5 6 6 6 6 7 5 4 3 3 3 2 2 1 1 1 2 2 2 2 2 3 3 2 4 2 1 3 4 5 4 5 6 10 12 10 5 5 4 2 3 2 4 4 2 2
3 1 2 3 1 2 4 3 4 5 6 6 6 5 4 3 3 3 3 3 3 3 2 3 2 2 3 3 3 1 3 2 1 3 4 4 5 6 9 10 11 6 6 5 2 2 2 4 3
1 3 3 2 2 2 1 2 2 2 2 3 2 3 3 4 3 4 4 4 3 4 4 3 3 3 3 4 4 5 4 2 3 -0 1 3 4 4 5 7 9 11 7 7 8 7 4 3 1
4 0 2 3 2 3 3 3 3 3 1 1 1 1 1 1 1 2 2 2 2 2 3 3 3 3 2 3 4 4 4 5 3 2 5 0 3 3 3 5 6 7 11 10 7 5 5 6 8
3 6 3 1 2 3 1 2 2 3 3 2 3 3 3 2 2 2 2 1 2 2 2 2 3 3 4 4 4 5 5 6 5 5 3 3 4 3 3 3 4 6 6 7 8 8 11 7 10
3 2 2 4 5 6 6 7 6 8 13 14 12 10 7 5 5 4 4 3 3 3 2 2 2 2 2 2 2 3 3 4 5 7 6 5 2 4 3 3 4 3 4 4 3 8 1 4 3
22 22 23 22 21 23 21 22 18 15 15 14 15 18 20 20 18 16 16 15 14 13 13 12 11 10 9 7 5 4 3 2 3 3 4 6 4 3 5 3 3 3 2 3 2 10 -4 7 -3
8 9 5 4 5 6 4 3 5 5 4 3 4 4 4 4 5 6 8 8 8 8 9 9 10 11 12 15 17 18 16 11 5 3 3 3 3 5 7 3 3 4 3 3 5 4 3 2 1
2 2 1 2 2 2 2 3 1 2 4 5 3 1 1 2 3 3 2 2 2 2 1 1 2 2 2 2 2 2 3 5 9 14 15 8 4 3 3 6 5 3 3 4 2 3 1 4 6
3 1 1 2 2 2 3 4 3 3 3 3 5 5 4 4 4 4 4 3 3 3 3 3 3 3 3 3 3 3 3 3 3 3 3 6 10 12 6 3 5 6 5 3 3 3 3 1 2
1 1 0 1 1 1 3 3 3 3 3 4 3 4 5 4 4 4 4 3 3 3 3 3 3 3 3 3 2 3 2 2 3 5 5 4 3 4 8 12 6 4 5 5 5 3 2 6 5
1 1 0 1 2 3 4 4 5 4 3 3 4 5 4 3 3 4 4 4 4 3 3 3 3 2 2 2 3 3 3 3 3 4 3 3 5 5 3 5 11 11 5 4 4 5 4 3 4
4 2 2 3 4 4 5 6 4 3 3 4 4 4 4 4 4 4 4 4 4 4 4 4 4 5 6 5 5 6 5 5 5 5 4 5 5 3 4 5 4 5 11 12 6 3 4 4 5
5 5 5 7 6 5 5 4 3 3 3 3 3 3 3 3 4 4 4 5 6 5 5 5 8 7 6 6 5 5 5 5 5 6 7 7 5 4 5 4 4 5 3 5 12 10 4 3 4
6 7 6 7 5 4 4 3 4 3 3 3 3 3 4 4 4 5 6 6 6 6 5 7 1 1 3 6 6 7 9 10 12 9 6 6 6 5 4 4 6 3 4 5 4 8 13 8 3
6 5 6 5 5 4 4 2 3 5 5 5 5 5 5 7 8 9 9 7 6 6 5 8 14 18 20 18 16 14 11 10 9 10 10 10 9 7 6 7 6 3 3 4 6 4 6 11 11
6 6 4 3 4 5 5 3 6 7 6 7 6 5 3 3 6 8 11 11 13 15 17 17 15 13 10 8 8 7 5 5 5 6 6 8 10 11 9 8 7 6 7 6 4 4 5 3 9
8 7 6 6 7 6 8 12 7 4 5 8 10 11 11 12 13 14 16 17 14 13 12 11 9 6 4 2 2 11 27 30 30 32 27 23 16 4 4 11 11 9 7 6 6 5 5 4 2
4 3 4 7 9 11 12 17 14 18 17 15 16 16 16 13 12 12 11 10 9 7 5 4 2 3 15 38 13 10 18 17 22 24 25 39 14 14 25 17 15 8 13 9 8 7 4 6 7
14 15 14 13 13 14 14 15 14 12 13 13 13 12 11 11 10 8 7 5 4 3 4 17 32 24 1 12 13 11 8 10 17 24 20 12 36 21 17 15 24 13 12 9 12 11 6 6 6
14 16 15 13 14 12 12 12 15 15 13 14 12 11 9 6 4 2 4 14 30 44 32 9 6 11 14 8 12 -1 20 40 32 19 41 42 25 20 21 19 10 16 28 18 7 7 15 9 5
12 12 13 13 12 11 12 13 9 8 7 6 5 4 3 3 26 43 31 18 13 14 -4 6 13 21 8 12 18 25 7 21 18 22 47 50 46 37 29 26 18 13 12 14 25 14 5 13 14
11 10 8 11 9 9 7 9 8 4 5 3 3 10 30 39 18 10 7 11 15 9 5 8 25 22 12 9 11 1 24 28 22 15 16 19 20 29 48 46 25 25 17 14 9 28 23 3 7
6 7 7 6 7 5 4 2 7 5 8 26 33 29 14 13 7 3 10 15 13 16 16 26 12 17 16 17 -1 15 5 24 14 31 40 26 16 15 17 19 44 42 24 17 2 12 25 34 10
4 4 4 3 5 8 11 26 17 28 26 20 11 17 14 6 2 9 18 26 19 19 31 35 31 32 25 19 21 22 4 9 1 8 7 33 47 50 23 17 18 20 28 30 21 16 18 19 19
16 21 21 21 24 23 27 20 22 19 15 12 16 8 3 -2 1 24 26 2 -6 12 15 10 16 23 24 7 4 -5 8 4 -9 7 4 8 1 11 36 55 45 18 15 19 16 16 15 15 16
Height
5854 5857 5860 5863 5869 5870 5871 5874 5875 5877 5879 5880 5883 5885 5886 5887 5888 5891 5890 5890 5890 5890 5889 5889 5890 5890 5890 5890 5890 5890 5891 5891 5892 5892 5893 5893 5894 5894 5894 5894 5893 5893 5893 5892 5892 5893 5893 5893 5892
5850 5854 5858 5861 5865 5867 5870 5871 5873 5875 5877 5879 5881 5883 5884 5886 5887 5888 5889 5889 5889 5889 5889 5889 5889 5890 5890 5890 5890 5890 5889 5890 5890 5890 5891 5891 5891 5892 5892 5892 5893 5893 5892 5891 5891 5891 5892 5892 5892
5847 5851 5855 5858 5861 5864 5867 5869 5871 5873 5875 5877 5879 5881 5882 5884 5885 5886 5887 5887 5888 5888 5888 5888 5888 5889 5889 5890 5889 5889 5888 5888 5888 5888 5889 5889 5889 5889 5890 5890 5890 5891 5891 5890 5890 5889 5890 5890 5890
5844 5848 5852 5854 5858 5862 5865 5867 5869 5871 5873 5874 5876 5878 5880 5882 5883 5884 5884 5885 5886 5886 5886 5887 5887 5887 5888 5889 5888 5888 5888 5887 5887 5887 5886 5886 5886 5887 5887 5888 5888 5888 5888 5888 5888 5887 5887 5888 5888
5839 5844 5847 5851 5855 5858 5862 5864 5867 5869 5871 5872 5873 5875 5877 5879 5880 5881 5882 5882 5884 5884 5884 5885 5886 5886 5887 5887 5887 5887 5887 5887 5886 5885 5885 5884 5884 5884 5885 5885 5886 5885 5886 5885 5885 5885 5884 5885 5885
5835 5840 5844 5848 5852 5855 5858 5861 5864 5866 5868 5869 5871 5873 5874 5875 5876 5877 5879 5879 5880 5881 5881 5882 5883 5884 5884 5884 5885 5885 5885 5884 5884 5884 5884 5883 5882 5882 5882 5881 5882 5883 5883 5883 5882 5882 5882 5881 5881
5831 5835 5840 5843 5847 5850 5854 5857 5860 5863 5864 5866 5868 5869 5871 5872 5872 5873 5874 5875 5876 5877 5878 5879 5880 5880 5881 5881 5881 5881 5881 5882 5881 5881 5882 5881 5881 5880 5879 5879 5878 5879 5879 5879 5880 5880 5879 5879 5879
5826 5831 5835 5839 5842 5846 5849 5853 5856 5858 5861 5862 5863 5865 5866 5867 5868 5869 5870 5871 5872 5873 5875 5876 5876 5876 5877 5877 5877 5877 5877 5878 5878 5878 5879 5879 5878 5878 5878 5877 5876 5875 5875 5876 5876 5876 5876 5875 5875
5821 5826 5830 5835 5838 5842 5845 5848 5850 5853 5856 5858 5859 5860 5862 5863 5863 5864 5865 5867 5869 5870 5871 5871 5871 5872 5873 5873 5873 5873 5873 5874 5874 5874 5874 5876 5875 5875 5874 5874 5874 5873 5872 5872 5872 5872 5872 5871 5871
5815 5820 5826 5830 5833 5837 5840 5843 5845 5849 5850 5852 5853 5854 5856 5857 5858 5858 5860 5863 5864 5865 5865 5866 5867 5867 5867 5867 5868 5867 5868 5868 5868 5869 5868 5869 5870 5870 5869 5869 5869 5869 5869 5869 5869 5868 5867 5866 5866
5810 5815 5820 5824 5828 5832 5835 5838 5841 5844 5846 5847 5848 5849 5851 5852 5853 5854 5856 5858 5859 5859 5860 5860 5860 5860 5861 5861 5861 5861 5861 5861 5862 5862 5862 5862 5863 5864 5864 5864 5864 5864 5864 5864 5864 5864 5863 5862 5861
5806 5811 5815 5820 5824 5828 5832 5835 5838 5840 5842 5843 5845 5846 5847 5848 5850 5851 5852 5854 5854 5854 5854 5855 5854 5854 5855 5854 5854 5855 5855 5855 5855 5855 5855 5855 5855 5855 5856 5856 5857 5857 5857 5857 5858 5858 5858 5857 5857
5802 5807 5811 5816 5820 5824 5828 5831 5833 5836 5838 5839 5841 5842 5843 5845 5846 5847 5848 5849 5849 5849 5849 5850 5850 5850 5850 5850 5849 5849 5849 5848 5848 5848 5848 5848 5848 5849 5849 5849 5849 5849 5850 5850 5850 5850 5851 5851 5852
5798 5802 5806 5810 5815 5819 5822 5826 5829 5831 5833 5835 5836 5838 5839 5840 5841 5842 5843 5843 5843 5843 5843 5844 5844 5844 5844 5843 5843 5842 5842 5841 5840 5838 5837 5837 5837 5838 5840 5841 5841 5841 5841 5841 5841 5842 5843 5844 5844
5793 5797 5801 5805 5810 5814 5817 5820 5823 5825 5827 5829 5830 5832 5833 5835 5835 5836 5836 5837 5837 5836 5835 5835 5835 5835 5835 5835 5834 5833 5833 5832 5831 5830 5830 5829 5829 5828 5828 5829 5830 5832 5832 5832 5833 5833 5834 5836 5837
5789 5793 5797 5801 5804 5808 5810 5814 5816 5818 5820 5822 5824 5825 5827 5827 5828 5829 5829 5829 5829 5828 5827 5827 5827 5826 5825 5825 5824 5823 5822 5821 5821 5819 5818 5818 5818 5818 5818 5819 5820 5820 5821 5823 5823 5823 5824 5825 5827
5784 5788 5792 5796 5798 5801 5804 5808 5809 5811 5813 5814 5815 5817 5818 5819 5820 5820 5820 5819 5820 5820 5819 5818 5817 5817 5815 5814 5813 5812 5810 5809 5808 5807 5806 5806 5806 5806 5806 5807 5808 5808 5809 5811 5811 5812 5813 5814 5816
5780 5783 5786 5790 5793 5794 5797 5800 5802 5804 5807 5808 5809 5809 5809 5810 5810 5809 5809 5809 5810 5810 5809 5808 5807 5806 5805 5804 5802 5801 5800 5797 5795 5793 5792 5791 5792 5792 5793 5793 5794 5795 5797 5798 5800 5801 5802 5803 5805
5775 5778 5781 5784 5786 5788 5791 5794 5795 5796 5800 5801 5801 5800 5800 5799 5799 5799 5800 5799 5799 5798 5798 5796 5796 5794 5793 5791 5790 5789 5788 5785 5783 5780 5777 5776 5776 5776 5777 5778 5780 5781 5784 5786 5787 5788 5790 5792 5794
5769 5772 5776 5778 5780 5782 5784 5788 5790 5789 5790 5791 5792 5793 5792 5792 5791 5790 5789 5789 5788 5786 5785 5784 5782 5781 5778 5777 5776 5774 5772 5770 5767 5764 5761 5760 5758 5758 5759 5761 5764 5766 5768 5772 5774 5775 5777 5779 5782
5763 5766 5769 5773 5774 5776 5777 5780 5782 5784 5785 5784 5784 5783 5782 5782 5782 5780 5778 5777 5776 5775 5773 5772 5771 5769 5767 5765 5763 5760 5756 5753 5750 5746 5742 5738 5737 5738 5739 5741 5745 5748 5751 5756 5759 5762 5763 5766 5768
5758 5761 5763 5765 5767 5769 5771 5768 5777 5777 5776 5775 5773 5772 5772 5772 5771 5769 5768 5766 5765 5764 5763 5762 5759 5757 5755 5751 5748 5745 5741 5735 5729 5725 5722 5718 5715 5715 5718 5722 5725 5730 5734 5739 5743 5746 5750 5752 5755
5752 5754 5756 5757 5759 5760 5762 5760 5761 5768 5767 5765 5763 5763 5763 5762 5761 5761 5760 5758 5756 5755 5752 5750 5748 5745 5741 5737 5733 5730 5723 5715 5708 5703 5699 5695 5691 5691 5694 5700 5705 5711 5716 5722 5726 5730 5734 5737 5740
5745 5747 5748 5749 5751 5751 5754 5754 5755 5755 5756 5756 5755 5755 5754 5754 5753 5752 5751 5749 5747 5744 5742 5740 5736 5732 5731 5728 5723 5717 5709 5699 5689 5680 5675 5672 5671 5670 5672 5677 5683 5689 5697 5703 5708 5714 5718 5722 5725
5739 5741 5741 5743 5744 5745 5745 5745 5747 5747 5747 5748 5747 5747 5747 5746 5746 5744 5743 5740 5738 5735 5732 5730 5728 5724 5722 5720 5716 5709 5698 5685 5672 5663 5654 5650 5649 5651 5653 5657 5663 5670 5676 5684 5691 5697 5703 5707 5710
5734 5736 5737 5736 5738 5739 5738 5739 5739 5740 5740 5741 5740 5740 5739 5738 5737 5736 5734 5733 5731 5729 5726 5723 5720 5717 5717 5715 5711 5703 5692 5678 5665 5654 5644 5638 5636 5635 5636 5640 5644 5652 5659 5666 5672 5678 5684 5690 5695
5731 5732 5732 5731 5732 5732 5733 5734 5733 5733 5733 5733 5732 5732 5731 5730 5730 5730 5730 5729 5728 5725 5719 5717 5715 5713 5711 5710 5705 5698 5688 5676 5665 5654 5645 5638 5632 5628 5626 5626 5630 5636 5643 5649 5655 5661 5667 5672 5678
5727 5728 5729 5727 5727 5727 5727 5727 5726 5727 5727 5726 5726 5726 5726 5727 5728 5729 5728 5726 5723 5720 5716 5713 5710 5708 5706 5704 5700 5694 5686 5675 5665 5654 5645 5637 5631 5627 5624 5623 5623 5627 5631 5637 5642 5647 5650 5656 5662
5723 5723 5723 5722 5722 5720 5720 5721 5719 5719 5721 5722 5723 5724 5725 5725 5726 5726 5725 5723 5721 5719 5715 5709 5705 5704 5703 5702 5697 5691 5685 5677 5668 5659 5650 5640 5632 5627 5623 5622 5622 5624 5628 5632 5635 5637 5640 5644 5648
5717 5717 5716 5716 5717 5714 5714 5715 5714 5715 5717 5720 5721 5723 5723 5723 5721 5721 5722 5722 5721 5718 5714 5708 5705 5703 5703 5701 5696 5691 5685 5679 5672 5664 5657 5649 5642 5635 5629 5624 5621 5622 5623 5626 5629 5631 5633 5636 5639